• En Estados Unidos
  • Lista de países
  • Para 7 días
  • Temperatura del agua
  • Mapa Satelital
  • El tiempo en el mapa
  • Informadores
  • user-avatar
    Iniciar sesión

    Tiempo cada hora Algiers

    Hoy, 20 Enero, Sábado

    Tiempo Temperatura Precipitaciones Viento Presión Humedad
    00:00 +11°C° 0,1 mm 3 mps 752 mmHg 90%
    01:00 +11°C° 0,1 mm 3 mps 753 mmHg 90%
    02:00 +11°C° 0,1 mm 3 mps 753 mmHg 91%
    03:00 +11°C° 0,1 mm 3 mps 753 mmHg 91%
    04:00 +11°C° 0,2 mm 4 mps 753 mmHg 91%
    05:00 +10°C° 0,2 mm 4 mps 753 mmHg 92%
    06:00 +10°C° 0,2 mm 4 mps 754 mmHg 93%
    07:00 +10°C° 0,1 mm 5 mps 754 mmHg 89%
    08:00 +12°C° 0,1 mm 5 mps 754 mmHg 85%
    09:00 +12°C° 0,1 mm 5 mps 755 mmHg 82%
    10:00 +13°C° 0,1 mm 5 mps 755 mmHg 77%
    11:00 +14°C° 0,1 mm 5 mps 755 mmHg 71%
    12:00 +14°C° 0,1 mm 5 mps 754 mmHg 66%
    13:00 +14°C° 0,1 mm 6 mps 754 mmHg 65%
    14:00 +15°C° 0,1 mm 6 mps 754 mmHg 64%
    15:00 +15°C° 0,1 mm 6 mps 754 mmHg 63%
    16:00 +14°C° 0 mm 6 mps 754 mmHg 70%
    17:00 +13°C° 0 mm 6 mps 754 mmHg 76%
    18:00 +12°C° 0 mm 5 mps 754 mmHg 83%
    19:00 +10°C° 0 mm 5 mps 754 mmHg 82%
    20:00 +10°C° 0 mm 6 mps 754 mmHg 81%
    21:00 +10°C° 0 mm 6 mps 755 mmHg 81%
    22:00 +10°C° 0 mm 6 mps 755 mmHg 78%
    23:00 +10°C° 0 mm 6 mps 755 mmHg 75%

    Mañana, 21 Enero, Domingo

    Tiempo Temperatura Precipitaciones Viento Presión Humedad
    00:00 +10°C° 0 mm 6 mps 755 mmHg 72%
    01:00 +10°C° 0 mm 6 mps 754 mmHg 68%
    02:00 +10°C° 0 mm 7 mps 754 mmHg 64%
    03:00 +10°C° 0 mm 7 mps 754 mmHg 61%
    04:00 +10°C° 0 mm 7 mps 754 mmHg 60%
    05:00 +10°C° 0 mm 7 mps 754 mmHg 58%
    06:00 +10°C° 0 mm 7 mps 754 mmHg 57%
    07:00 +11°C° 0 mm 6 mps 755 mmHg 56%
    08:00 +13°C° 0 mm 6 mps 755 mmHg 55%
    09:00 +14°C° 0 mm 6 mps 755 mmHg 53%
    10:00 +16°C° 0 mm 6 mps 755 mmHg 52%
    11:00 +17°C° 0 mm 7 mps 755 mmHg 52%
    12:00 +18°C° 0 mm 7 mps 755 mmHg 51%
    13:00 +18°C° 0 mm 7 mps 755 mmHg 53%
    14:00 +18°C° 0 mm 7 mps 755 mmHg 54%
    15:00 +18°C° 0 mm 7 mps 755 mmHg 56%
    16:00 +16°C° 0 mm 6 mps 755 mmHg 64%
    17:00 +15°C° 0 mm 5 mps 755 mmHg 72%
    18:00 +13°C° 0 mm 5 mps 756 mmHg 80%
    19:00 +13°C° 0 mm 4 mps 756 mmHg 80%
    20:00 +12°C° 0 mm 4 mps 756 mmHg 80%
    21:00 +12°C° 0 mm 4 mps 757 mmHg 80%
    22:00 +12°C° 0 mm 4 mps 757 mmHg 78%
    23:00 +12°C° 0 mm 4 mps 757 mmHg 76%

    Pasado mañana, 22 Enero, Lunes

    Tiempo Temperatura Precipitaciones Viento Presión Humedad
    00:00 +12°C° 0 mm 4 mps 757 mmHg 75%
    01:00 +12°C° 0 mm 4 mps 757 mmHg 74%
    02:00 +12°C° 0 mm 4 mps 757 mmHg 72%
    03:00 +12°C° 0 mm 3 mps 756 mmHg 71%
    04:00 +12°C° 0 mm 3 mps 756 mmHg 71%
    05:00 +12°C° 0 mm 3 mps 756 mmHg 70%
    06:00 +12°C° 0 mm 4 mps 756 mmHg 70%
    07:00 +13°C° 0 mm 3 mps 757 mmHg 67%
    08:00 +16°C° 0 mm 3 mps 757 mmHg 64%
    09:00 +17°C° 0 mm 3 mps 757 mmHg 61%
    10:00 +18°C° 0 mm 3 mps 757 mmHg 56%
    11:00 +19°C° 0 mm 3 mps 757 mmHg 52%
    12:00 +21°C° 0 mm 3 mps 757 mmHg 47%
    13:00 +21°C° 0 mm 3 mps 756 mmHg 48%
    14:00 +21°C° 0 mm 3 mps 756 mmHg 49%
    15:00 +21°C° 0 mm 3 mps 756 mmHg 50%
    16:00 +19°C° 0 mm 3 mps 756 mmHg 57%
    17:00 +17°C° 0 mm 3 mps 756 mmHg 64%
    18:00 +15°C° 0 mm 2 mps 756 mmHg 71%
    19:00 +15°C° 0 mm 2 mps 756 mmHg 71%
    20:00 +14°C° 0 mm 2 mps 757 mmHg 71%
    21:00 +14°C° 0 mm 2 mps 757 mmHg 71%
    22:00 +14°C° 0 mm 2 mps 757 mmHg 71%
    23:00 +14°C° 0 mm 2 mps 757 mmHg 71%

    23 Enero, Martes

    Tiempo Temperatura Precipitaciones Viento Presión Humedad
    00:00 +14°C° 0 mm 2 mps 757 mmHg 71%
    01:00 +14°C° 0 mm 2 mps 757 mmHg 70%
    02:00 +13°C° 0 mm 1 mps 757 mmHg 69%
    03:00 +13°C° 0 mm 1 mps 757 mmHg 69%
    04:00 +13°C° 0 mm 1 mps 756 mmHg 68%
    05:00 +13°C° 0 mm 2 mps 756 mmHg 68%
    06:00 +13°C° 0 mm 2 mps 756 mmHg 67%
    07:00 +14°C° 0 mm 2 mps 757 mmHg 63%
    08:00 +16°C° 0 mm 1 mps 757 mmHg 59%
    09:00 +18°C° 0 mm 1 mps 757 mmHg 55%
    10:00 +18°C° 0 mm 2 mps 757 mmHg 51%
    11:00 +19°C° 0 mm 2 mps 757 mmHg 46%
    12:00 +20°C° 0 mm 2 mps 757 mmHg 42%
    13:00 +20°C° 0 mm 2 mps 757 mmHg 43%
    14:00 +20°C° 0 mm 2 mps 756 mmHg 44%
    15:00 +20°C° 0 mm 3 mps 756 mmHg 45%
    16:00 +18°C° 0 mm 2 mps 756 mmHg 51%
    17:00 +16°C° 0 mm 2 mps 757 mmHg 58%
    18:00 +14°C° 0 mm 1 mps 757 mmHg 65%
    19:00 +14°C° 0 mm 1 mps 757 mmHg 65%
    20:00 +14°C° 0 mm 1 mps 758 mmHg 66%
    21:00 +13°C° 0 mm 1 mps 758 mmHg 66%
    22:00 +13°C° 0 mm 1 mps 758 mmHg 65%
    23:00 +13°C° 0 mm 1 mps 758 mmHg 64%

    24 Enero, Miércoles

    Tiempo Temperatura Precipitaciones Viento Presión Humedad
    00:00 +13°C° 0 mm 1 mps 758 mmHg 63%
    01:00 +13°C° 0 mm 1 mps 758 mmHg 63%
    02:00 +12°C° 0 mm 1 mps 757 mmHg 63%
    03:00 +12°C° 0 mm 1 mps 757 mmHg 64%
    04:00 +12°C° 0 mm 2 mps 757 mmHg 65%
    05:00 +12°C° 0 mm 2 mps 757 mmHg 66%
    06:00 +12°C° 0 mm 2 mps 757 mmHg 67%
    07:00 +13°C° 0 mm 2 mps 758 mmHg 64%
    08:00 +14°C° 0 mm 2 mps 758 mmHg 61%
    09:00 +16°C° 0 mm 3 mps 758 mmHg 58%
    10:00 +17°C° 0 mm 3 mps 758 mmHg 56%
    11:00 +18°C° 0 mm 3 mps 758 mmHg 54%
    12:00 +19°C° 0 mm 3 mps 758 mmHg 52%
    13:00 +19°C° 0 mm 3 mps 758 mmHg 53%
    14:00 +19°C° 0 mm 4 mps 757 mmHg 55%
    15:00 +20°C° 0 mm 4 mps 757 mmHg 56%
    16:00 +18°C° 0 mm 4 mps 757 mmHg 65%
    17:00 +15°C° 0 mm 4 mps 757 mmHg 73%
    18:00 +13°C° 0 mm 4 mps 757 mmHg 81%
    19:00 +13°C° 0 mm 3 mps 758 mmHg 80%
    20:00 +13°C° 0 mm 3 mps 758 mmHg 78%
    21:00 +13°C° 0 mm 3 mps 758 mmHg 76%
    22:00 +13°C° 0 mm 3 mps 758 mmHg 72%
    23:00 +13°C° 0 mm 3 mps 758 mmHg 68%

    25 Enero, Jueves

    Tiempo Temperatura Precipitaciones Viento Presión Humedad
    00:00 +13°C° 0 mm 3 mps 758 mmHg 64%
    01:00 +13°C° 0 mm 3 mps 758 mmHg 63%
    02:00 +12°C° 0 mm 3 mps 757 mmHg 62%
    03:00 +12°C° 0 mm 3 mps 757 mmHg 61%
    04:00 +12°C° 0 mm 3 mps 757 mmHg 62%
    05:00 +12°C° 0 mm 3 mps 758 mmHg 63%
    06:00 +11°C° 0 mm 3 mps 758 mmHg 65%
    07:00 +13°C° 0 mm 3 mps 758 mmHg 63%
    08:00 +14°C° 0 mm 3 mps 758 mmHg 61%
    09:00 +16°C° 0 mm 3 mps 758 mmHg 59%
    10:00 +17°C° 0 mm 3 mps 758 mmHg 53%
    11:00 +19°C° 0 mm 2 mps 758 mmHg 48%
    12:00 +21°C° 0 mm 2 mps 757 mmHg 42%
    13:00 +21°C° 0 mm 2 mps 757 mmHg 42%
    14:00 +21°C° 0 mm 2 mps 757 mmHg 41%
    15:00 +22°C° 0 mm 1 mps 756 mmHg 40%
    16:00 +21°C° 0 mm 1 mps 756 mmHg 44%
    17:00 +18°C° 0 mm 2 mps 756 mmHg 48%
    18:00 +16°C° 0 mm 2 mps 756 mmHg 52%
    19:00 +16°C° 0 mm 2 mps 756 mmHg 53%
    20:00 +15°C° 0 mm 2 mps 756 mmHg 54%
    21:00 +14°C° 0 mm 3 mps 756 mmHg 55%
    22:00 +14°C° 0 mm 3 mps 756 mmHg 57%
    23:00 +13°C° 0 mm 3 mps 756 mmHg 59%
    Mostrar más